{"data":{"norad_id":62261,"intl_designator":"2024-235A","name":"SENTINEL-1C","alt_names":[],"object_type":"PAYLOAD","status":"ACTIVE","operator":null,"country":"ESA","launch_date":"2024-12-05","launch_site_code":"FRGUI","launch_vehicle":null,"mission":null,"orbit_class":"UNKNOWN","rcs_meters":null,"size_class":null,"mass_kg":null,"dimensions":null,"purposes":[],"wikipedia_slug":null,"has_3d_model":false,"image_url":null,"decayed_at":null,"tle_current":{"epoch":"2026-05-25T03:43:50.896416Z","epoch_age_seconds":72210,"freshness":"FRESH","line1":"1 62261U 24235A   26145.15545019 -.00000148  00000+0 -21622-4 0  9992","line2":"2 62261  98.1817 152.7984 0001300  89.9067 270.2282 14.59197689 78054","mean_motion":14.59197689,"eccentricity":0.00013,"inclination_deg":98.1817,"raan_deg":152.7984,"arg_perigee_deg":89.9067,"mean_anomaly_deg":270.2282,"bstar":-2.1622e-5,"rev_number":7805,"period_min":98.684366817141,"perigee_km":694.84615749202,"apogee_km":696.68537221088,"semimajor_km":7073.9027648515,"source":"CELESTRAK","updated_at":"2026-05-25T13:38:02.870988Z"}}}